| time (UTC) | temp F | wind direction | speed knots | gust knots | rain 1hr in | rain 24hr in | rain mn in | humidity % | barometer mb |
| 20260505124505 | 74 | 141 | 0.0 | 4.3 | 0.00 | 0.00 | 0.00 | 88 | 1007.5 |
| 20260505123113 | 74 | 225 | 0.0 | 1.7 | 0.00 | 0.00 | 0.00 | 88 | 1007.2 |
| 20260505121555 | 74 | 182 | 0.0 | 3.5 | 0.00 | 0.00 | 0.00 | 89 | 1007.2 |
| 20260505120055 | 74 | 192 | 0.0 | 3.5 | 0.00 | 0.00 | 0.00 | 89 | 1007.5 |
| 20260505114559 | 74 | 182 | 0.0 | 2.6 | 0.00 | 0.00 | 0.00 | 88 | 1007.2 |
| 20260505113051 | 74 | 209 | 0.0 | 1.7 | 0.00 | 0.00 | 0.00 | 88 | 1007.0 |
| 20260505111542 | 74 | 223 | 0.0 | 0.9 | 0.00 | 0.00 | 0.00 | 88 | 1007.4 |
| 20260505101525 | 74 | 218 | 0.0 | 1.7 | 0.00 | 0.00 | 0.00 | 87 | 1007.2 |
| 20260505100030 | 74 | 209 | 0.0 | 1.7 | 0.00 | 0.00 | 0.00 | 87 | 1007.0 |
| 20260505094517 | 74 | 192 | 0.0 | 2.6 | 0.00 | 0.00 | 0.00 | 87 | 1007.3 |
| 20260505093013 | 73 | 207 | 0.0 | 2.6 | 0.00 | 0.00 | 0.00 | 87 | 1007.5 |
| 20260505091512 | 73 | 207 | 0.0 | 2.6 | 0.00 | 0.00 | 0.00 | 87 | 1007.4 |
| 20260505090009 | 74 | 277 | 0.0 | 3.5 | 0.00 | 0.00 | 0.00 | 86 | 1007.5 |
| 20260505084504 | 74 | 253 | 0.0 | 2.6 | 0.00 | 0.00 | 0.00 | 86 | 1007.4 |
| 20260505083109 | 74 | 146 | 0.0 | 1.7 | 0.00 | 0.00 | 0.00 | 86 | 1007.5 |
| 20260505081556 | 74 | 164 | 0.0 | 3.5 | 0.00 | 0.00 | 0.00 | 85 | 1007.6 |
| 20260505080055 | 74 | 225 | 0.0 | 2.6 | 0.00 | 0.00 | 0.00 | 85 | 1007.8 |
| 20260505074548 | 73 | 245 | 0.0 | 2.6 | 0.00 | 0.00 | 0.00 | 85 | 1007.9 |
| 20260505073055 | 73 | 138 | 0.0 | 3.5 | 0.00 | 0.00 | 0.00 | 85 | 1007.9 |
| 20260505071543 | 73 | 292 | 0.0 | 3.5 | 0.00 | 0.00 | 0.00 | 85 | 1008.0 |
| 20260505070050 | 73 | 134 | 0.0 | 2.6 | 0.00 | 0.00 | 0.00 | 85 | 1008.3 |
| 20260505064538 | 72 | 169 | 0.0 | 3.5 | 0.00 | 0.00 | 0.00 | 85 | 1008.5 |
| 20260505063037 | 72 | 192 | 0.0 | 0.9 | 0.00 | 0.00 | 0.00 | 85 | 1008.8 |
| 20260505061535 | 72 | 70 | 0.0 | 0.9 | 0.00 | 0.00 | 0.00 | 85 | 1008.9 |
| 20260505060037 | 72 | 103 | 0.0 | 1.7 | 0.00 | 0.00 | 0.00 | 84 | 1008.8 |
| 20260505054534 | 72 | 227 | 0.0 | 2.6 | 0.00 | 0.00 | 0.00 | 84 | 1009.0 |
| 20260505053033 | 72 | 133 | 0.0 | 0.9 | 0.00 | 0.00 | 0.00 | 83 | 1009.0 |
| 20260505051536 | 72 | 138 | 0.0 | 3.5 | 0.00 | 0.00 | 0.00 | 83 | 1009.1 |
| 20260505041546 | 72 | 69 | 0.0 | 0.9 | 0.00 | 0.00 | 0.00 | 83 | 1009.6 |
| 20260505040028 | 72 | 182 | 0.0 | 0.0 | 0.00 | 0.00 | 0.00 | 82 | 1009.7 |
| 20260505034528 | 72 | 229 | 0.0 | 0.0 | 0.00 | 0.00 | 0.00 | 82 | 1009.8 |
| 20260505033027 | 72 | 218 | 0.0 | 0.0 | 0.00 | 0.00 | 0.00 | 81 | 1009.8 |
| 20260505031527 | 72 | 209 | 0.0 | 0.0 | 0.00 | 0.00 | 0.00 | 80 | 1009.7 |
| 20260505030033 | 72 | 147 | 0.0 | 0.0 | 0.00 | 0.00 | 0.00 | 80 | 1009.7 |
| 20260505024527 | 73 | 158 | 0.0 | 0.9 | 0.00 | 0.00 | 0.00 | 79 | 1009.8 |
| 20260505023033 | 73 | 140 | 0.0 | 1.7 | 0.00 | 0.00 | 0.00 | 79 | 1009.7 |
| 20260505021527 | 73 | 111 | 0.0 | 1.7 | 0.00 | 0.00 | 0.00 | 78 | 1009.6 |
| 20260505020026 | 73 | 225 | 0.0 | 1.7 | 0.00 | 0.00 | 0.00 | 78 | 1009.6 |
| 20260505014524 | 74 | 153 | 0.0 | 0.0 | 0.00 | 0.00 | 0.00 | 78 | 1009.3 |
| 20260505013025 | 74 | 131 | 0.0 | 0.9 | 0.00 | 0.00 | 0.00 | 77 | 1009.3 |
| 20260505011529 | 74 | 153 | 0.0 | 3.5 | 0.00 | 0.00 | 0.00 | 77 | 1009.4 |
| 20260505010023 | 74 | 147 | 0.0 | 1.7 | 0.00 | 0.00 | 0.00 | 76 | 1009.2 |
| 20260505004533 | 74 | 274 | 0.0 | 4.3 | 0.00 | 0.00 | 0.00 | 76 | 1009.1 |
| 20260505003021 | 75 | 133 | 0.0 | 2.6 | 0.00 | 0.00 | 0.00 | 75 | 1009.2 |
| 20260505001520 | 75 | 141 | 0.0 | 2.6 | 0.00 | 0.00 | 0.00 | 74 | 1009.2 |
| 20260505000028 | 76 | 141 | 0.0 | 1.7 | 0.00 | 0.00 | 0.00 | 73 | 1009.3 |
| 20260504234519 | 76 | 149 | 0.0 | 1.7 | 0.00 | 0.00 | 0.00 | 73 | 1009.3 |
| 20260504233017 | 77 | 158 | 0.9 | 2.6 | 0.00 | 0.00 | 0.00 | 72 | 1009.5 |
| 20260504231516 | 76 | 163 | 0.0 | 3.5 | 0.00 | 0.00 | 0.00 | 73 | 1009.7 |
| 20260504230018 | 76 | 165 | 0.0 | 1.7 | 0.00 | 0.00 | 0.00 | 73 | 1010.0 |
| 20260504224514 | 77 | 146 | 0.0 | 2.6 | 0.00 | 0.00 | 0.00 | 72 | 1009.9 |
| 20260504223012 | 77 | 125 | 0.0 | 1.7 | 0.00 | 0.00 | 0.00 | 72 | 1010.1 |
| 20260504221517 | 76 | 115 | 0.0 | 1.7 | 0.00 | 0.00 | 0.00 | 71 | 1010.5 |
| 20260504220010 | 77 | 197 | 0.0 | 2.6 | 0.00 | 0.00 | 0.00 | 71 | 1010.4 |
| 20260504214512 | 77 | 148 | 0.0 | 1.7 | 0.00 | 0.00 | 0.00 | 71 | 1010.6 |
| 20260504213026 | 77 | 155 | 0.0 | 1.7 | 0.00 | 0.00 | 0.00 | 69 | 1010.7 |
| 20260504211514 | 78 | 144 | 0.9 | 2.6 | 0.00 | 0.00 | 0.00 | 70 | 1010.7 |
| 20260504210006 | 78 | 289 | 0.9 | 2.6 | 0.00 | 0.00 | 0.00 | 69 | 1011.0 |
| 20260504204504 | 78 | 143 | 0.0 | 1.7 | 0.00 | 0.00 | 0.00 | 68 | 1011.2 |
| 20260504203007 | 79 | 94 | 0.0 | 2.6 | 0.00 | 0.00 | 0.00 | 67 | 1011.4 |
| 20260504201500 | 79 | 148 | 0.0 | 3.5 | 0.00 | 0.00 | 0.00 | 67 | 1011.4 |
| 20260504200059 | 80 | 157 | 0.0 | 2.6 | 0.00 | 0.00 | 0.00 | 67 | 1011.6 |
| 20260504194606 | 79 | 154 | 0.0 | 2.6 | 0.00 | 0.00 | 0.00 | 66 | 1011.7 |
| 20260504193109 | 80 | 155 | 0.0 | 1.7 | 0.00 | 0.00 | 0.00 | 64 | 1012.1 |
| 20260504191554 | 80 | 94 | 0.9 | 4.3 | 0.00 | 0.00 | 0.00 | 64 | 1012.3 |
| 20260504190113 | 79 | 117 | 0.0 | 6.1 | 0.00 | 0.00 | 0.00 | 65 | 1012.3 |
| 20260504184600 | 80 | 131 | 0.9 | 3.5 | 0.00 | 0.00 | 0.00 | 64 | 1012.3 |
| 20260504183050 | 79 | 169 | 1.7 | 7.0 | 0.00 | 0.00 | 0.00 | 64 | 1012.5 |
| 20260504181547 | 79 | 152 | 0.9 | 7.8 | 0.00 | 0.00 | 0.00 | 67 | 1012.8 |
| 20260504180047 | 79 | 136 | 0.9 | 3.5 | 0.00 | 0.00 | 0.00 | 63 | 1012.8 |
| 20260504174545 | 79 | 224 | 0.9 | 7.0 | 0.00 | 0.00 | 0.00 | 65 | 1012.9 |
| 20260504173048 | 78 | 219 | 0.9 | 9.6 | 0.00 | 0.00 | 0.00 | 65 | 1013.3 |
| 20260504171538 | 78 | 153 | 1.7 | 4.3 | 0.00 | 0.00 | 0.00 | 64 | 1013.4 |